Terminal Aerodrome Forecast
Issued by NWS Sterling, VA

Current Version | Previous Version | Text Only | Print | Product List | Glossary Off
Versions: 1 2 3 4 5 6 7 8 9 10 11 12 13 14 15 16 17 18 19 20 21 22 23 24 25

000
FTUS41 KLWX 211140
TAFIAD
TAF
KIAD 211140Z 2112/2218 VRB05KT P6SM -RA OVC045
     FM211600 04006KT 6SM -RA SCT008 OVC030
     FM212100 VRB04KT P6SM -DZ BKN015
     FM220000 35005KT P6SM BKN035
     FM220500 30006KT P6SM SCT060
     FM221400 30011KT P6SM FEW250=

USA.gov is the U.S. government's official web portal to all federal, state and local government web resources and services.